contact:dominique.lefevre@mio.osupytheas.fr, maurice.libes@osupytheas.fr, didier.mallarino@osupytheas.fr
Project:EMSO http://www.emso-fr.org/EMSO-France
Depth: 2436.0 m
Title:EMSO Ligure Ouest : Data MII capteur AQUADOPP
Date,Latitude,Longitude,X_East,Y_North,Z_Up,Amplitude_X,Amplitude_Y,Amplitude_Z,Batterie,SoundSpeed,Heading,Pitch,Roll,Pressure,TIS,Speed,Direction
, degrees North, degrees East, m.s-1, m.s-1,m.s-1, 1, 1, 1, Volt, m.s-1, degree, degree, degree, dbar, degree_C, m.s-1, degree
2021-12-22T00:04:03,42.805,6.029,-0.022,0.026,0.01,100.0,101.0,101.0,13.4,1505.2,329.6,-0.8,1.8,2470.458,13.28,0.034,319.8
2021-12-22T00:07:03,42.805,6.029,0.006,0.025,0.0,102.0,101.0,100.0,13.4,1505.2,330.6,-0.7,1.8,2470.527,13.29,0.025,13.5
2021-12-22T00:10:03,42.805,6.029,0.0,0.01,-0.008,106.0,100.0,99.0,13.3,1505.2,326.4,-0.8,1.8,2470.505,13.29,0.01,0.0
2021-12-22T00:13:03,42.805,6.029,0.018,0.021,0.016,101.0,101.0,100.0,13.4,1505.2,325.1,-0.8,1.8,2470.519,13.29,0.027,40.6
2021-12-22T00:16:03,42.805,6.029,-0.026,0.009,-0.016,100.0,101.0,100.0,13.4,1505.2,326.8,-0.7,1.8,2470.455,13.29,0.027,289.1
2021-12-22T00:19:03,42.805,6.029,-0.014,0.0,-0.039,100.0,102.0,100.0,13.4,1505.2,326.6,-0.8,1.8,2470.495,13.29,0.014,270.0
2021-12-22T00:22:03,42.805,6.029,0.007,-0.003,0.014,101.0,99.0,100.0,13.4,1505.2,328.2,-0.8,1.8,2470.496,13.29,0.007,113.2
2021-12-22T00:25:03,42.805,6.029,-0.003,0.029,0.005,101.0,100.0,100.0,13.3,1505.2,328.3,-0.8,1.8,2470.521,13.29,0.029,354.1
2021-12-22T00:28:03,42.805,6.029,-0.002,0.011,0.015,101.0,101.0,100.0,13.4,1505.2,328.6,-0.7,1.9,2470.457,13.29,0.011,349.7
2021-12-22T00:31:03,42.805,6.029,-0.028,0.04,0.006,100.0,102.0,100.0,13.3,1505.2,329.1,-0.8,1.8,2470.508,13.29,0.048,325.0
2021-12-22T00:34:03,42.805,6.029,-0.019,0.009,-0.044,100.0,102.0,100.0,13.4,1505.2,329.4,-0.8,1.8,2470.497,13.29,0.021,295.3
2021-12-22T00:37:03,42.805,6.029,-0.032,0.024,-0.018,99.0,102.0,101.0,13.4,1505.2,328.5,-0.7,1.8,2470.487,13.29,0.04,306.9
2021-12-22T00:40:03,42.805,6.029,-0.019,0.011,0.014,101.0,101.0,100.0,13.4,1505.2,325.6,-0.8,1.8,2470.461,13.29,0.021,300.1
2021-12-22T00:43:03,42.805,6.029,-0.027,0.024,-0.035,101.0,101.0,100.0,13.4,1505.2,328.5,-0.7,1.8,2470.515,13.29,0.036,311.6
2021-12-22T00:46:03,42.805,6.029,-0.01,0.024,-0.02,101.0,102.0,99.0,13.3,1505.2,326.7,-0.7,1.8,2470.531,13.29,0.026,337.4
2021-12-22T00:49:03,42.805,6.029,-0.018,0.011,-0.046,103.0,101.0,100.0,13.4,1505.2,325.7,-0.8,1.8,2470.505,13.29,0.021,301.4
2021-12-22T00:52:03,42.805,6.029,-0.007,0.014,0.013,101.0,101.0,100.0,13.4,1505.2,326.6,-0.7,1.8,2470.429,13.29,0.015,333.4
2021-12-22T00:55:03,42.805,6.029,-0.037,0.029,-0.002,101.0,101.0,100.0,13.4,1505.2,326.6,-0.8,1.8,2470.477,13.29,0.047,308.1
2021-12-22T00:58:03,42.805,6.029,-0.026,0.039,-0.02,102.0,101.0,99.0,13.3,1505.2,329.2,-0.8,1.8,2470.47,13.29,0.046,326.3
2021-12-22T01:04:03,42.805,6.029,0.007,0.01,0.043,102.0,103.0,102.0,13.4,1505.2,328.1,-0.8,1.9,2470.485,13.29,0.012,35.0
2021-12-22T01:07:03,42.805,6.029,-0.026,0.013,0.018,102.0,102.0,101.0,13.3,1505.2,329.2,-0.7,1.8,2470.503,13.29,0.029,296.6
2021-12-22T01:10:03,42.805,6.029,-0.021,0.025,0.008,100.0,102.0,99.0,13.4,1505.2,324.0,-0.8,1.9,2470.502,13.29,0.032,320.0
2021-12-22T01:13:03,42.805,6.029,-0.017,0.02,-0.039,101.0,100.0,99.0,13.4,1505.2,329.0,-0.7,1.8,2470.503,13.29,0.026,319.6
2021-12-22T01:16:03,42.805,6.029,-0.017,0.027,0.012,108.0,101.0,99.0,13.4,1505.2,331.3,-0.8,1.8,2470.519,13.29,0.031,327.8
2021-12-22T01:19:03,42.805,6.029,-0.028,0.0,-0.023,101.0,101.0,101.0,13.4,1505.2,325.1,-0.8,1.8,2470.499,13.29,0.028,270.0
2021-12-22T01:22:03,42.805,6.029,0.007,-0.002,-0.028,101.0,101.0,100.0,13.4,1505.2,328.1,-0.7,1.8,2470.56,13.29,0.007,105.9
2021-12-22T01:25:03,42.805,6.029,-0.003,0.013,-0.001,101.0,101.0,100.0,13.3,1505.2,324.7,-0.7,1.8,2470.533,13.29,0.013,347.0
2021-12-22T01:28:03,42.805,6.029,-0.033,-0.002,-0.044,101.0,102.0,100.0,13.4,1505.2,328.6,-0.7,1.9,2470.492,13.29,0.033,266.5
2021-12-22T01:31:03,42.805,6.029,-0.019,0.028,0.0,102.0,100.0,99.0,13.3,1505.2,325.8,-0.8,1.9,2470.518,13.29,0.033,325.8
2021-12-22T01:34:03,42.805,6.029,-0.03,0.012,-0.021,101.0,101.0,100.0,13.3,1505.2,330.5,-0.8,1.8,2470.517,13.29,0.032,291.8
2021-12-22T01:37:03,42.805,6.029,-0.014,0.007,-0.024,101.0,103.0,100.0,13.4,1505.2,331.5,-0.7,1.8,2470.502,13.29,0.015,296.6
2021-12-22T01:40:03,42.805,6.029,-0.005,0.011,0.03,100.0,102.0,100.0,13.4,1505.2,330.7,-0.8,1.8,2470.5,13.29,0.012,335.6
2021-12-22T01:43:03,42.805,6.029,-0.028,0.02,0.0,101.0,101.0,99.0,13.3,1505.2,324.9,-0.7,1.8,2470.459,13.29,0.034,305.5
2021-12-22T01:46:03,42.805,6.029,-0.018,0.009,-0.003,101.0,101.0,99.0,13.4,1505.2,328.6,-0.8,1.8,2470.471,13.29,0.02,296.6
2021-12-22T01:49:03,42.805,6.029,0.0,-0.015,-0.053,100.0,101.0,100.0,13.4,1505.2,327.1,-0.7,1.8,2470.461,13.29,0.015,180.0
2021-12-22T01:52:03,42.805,6.029,-0.02,0.02,-0.027,102.0,100.0,100.0,13.3,1505.2,326.4,-0.8,1.8,2470.45,13.29,0.028,315.0
2021-12-22T01:55:03,42.805,6.029,-0.041,0.003,-0.02,101.0,102.0,100.0,13.4,1505.2,326.0,-0.8,1.8,2470.464,13.29,0.041,274.2
2021-12-22T01:58:03,42.805,6.029,-0.009,0.025,-0.008,100.0,100.0,100.0,13.4,1505.2,326.9,-0.7,1.8,2470.496,13.29,0.026,340.2
2021-12-22T02:04:03,42.805,6.029,-0.012,0.026,-0.023,100.0,101.0,100.0,13.4,1505.2,331.9,-0.8,1.8,2470.482,13.29,0.028,335.2
2021-12-22T02:07:03,42.805,6.029,-0.016,0.002,-0.01,102.0,101.0,100.0,13.3,1505.2,326.3,-0.7,1.8,2470.492,13.29,0.016,277.1
2021-12-22T02:10:03,42.805,6.029,-0.013,0.011,-0.019,100.0,101.0,100.0,13.4,1505.2,325.9,-0.8,1.9,2470.473,13.29,0.017,310.2
2021-12-22T02:13:03,42.805,6.029,-0.017,0.017,0.026,100.0,102.0,100.0,13.3,1505.2,327.6,-0.8,1.8,2470.435,13.29,0.024,315.0
2021-12-22T02:16:03,42.805,6.029,-0.018,0.018,0.018,100.0,101.0,100.0,13.4,1505.2,327.2,-0.8,1.8,2470.465,13.29,0.025,315.0
2021-12-22T02:19:03,42.805,6.029,-0.017,-0.001,-0.024,100.0,102.0,99.0,13.4,1505.2,328.5,-0.8,1.8,2470.441,13.29,0.017,266.6
2021-12-22T02:22:03,42.805,6.029,-0.011,0.014,-0.009,101.0,102.0,99.0,13.4,1505.2,329.7,-0.7,1.8,2470.478,13.29,0.017,321.8
2021-12-22T02:25:03,42.805,6.029,-0.024,0.005,-0.047,101.0,101.0,100.0,13.4,1505.2,331.9,-0.7,1.8,2470.474,13.29,0.024,281.8
2021-12-22T02:28:03,42.805,6.029,-0.02,0.0,-0.025,100.0,101.0,100.0,13.3,1505.2,327.7,-0.7,1.8,2470.471,13.29,0.02,270.0
2021-12-22T02:31:03,42.805,6.029,-0.034,-0.002,-0.015,100.0,101.0,100.0,13.4,1505.2,327.7,-0.8,1.8,2470.504,13.29,0.034,266.6
2021-12-22T02:34:03,42.805,6.029,-0.024,0.014,-0.004,102.0,101.0,100.0,13.4,1505.2,330.6,-0.8,1.8,2470.515,13.29,0.027,300.3
2021-12-22T02:37:03,42.805,6.029,-0.022,0.0,-0.016,102.0,99.0,100.0,13.4,1505.2,328.8,-0.8,1.8,2470.523,13.29,0.022,270.0
2021-12-22T02:40:03,42.805,6.029,-0.03,0.02,-0.018,100.0,101.0,101.0,13.3,1505.2,330.6,-0.8,1.8,2470.523,13.29,0.036,303.7
2021-12-22T02:43:03,42.805,6.029,-0.015,0.023,0.019,99.0,102.0,100.0,13.4,1505.2,326.7,-0.8,1.8,2470.545,13.29,0.027,326.9
2021-12-22T02:46:03,42.805,6.029,-0.015,-0.004,0.006,102.0,99.0,102.0,13.3,1505.2,327.1,-0.7,1.8,2470.581,13.29,0.015,255.1
2021-12-22T02:49:03,42.805,6.029,-0.008,0.016,-0.023,102.0,101.0,100.0,13.3,1505.2,326.7,-0.7,1.8,2470.532,13.29,0.017,333.4
2021-12-22T02:52:03,42.805,6.029,-0.017,-0.011,-0.074,102.0,101.0,100.0,13.3,1505.2,331.0,-0.7,1.8,2470.543,13.29,0.02,237.1
2021-12-22T02:55:03,42.805,6.029,-0.01,0.0,-0.012,101.0,101.0,100.0,13.4,1505.2,329.4,-0.7,1.8,2470.596,13.29,0.01,270.0
2021-12-22T02:58:03,42.805,6.029,-0.023,-0.004,-0.046,101.0,101.0,100.0,13.3,1505.2,325.7,-0.8,1.8,2470.586,13.29,0.023,260.1
2021-12-22T03:04:03,42.805,6.029,-0.035,0.023,-0.028,101.0,102.0,100.0,13.3,1505.2,329.2,-0.8,1.8,2470.576,13.28,0.041,303.3
2021-12-22T03:07:03,42.805,6.029,-0.036,0.017,-0.034,101.0,102.0,100.0,13.3,1505.2,328.5,-0.8,1.8,2470.507,13.28,0.039,295.3
2021-12-22T03:10:03,42.805,6.029,-0.051,0.02,-0.003,101.0,101.0,100.0,13.3,1505.2,330.9,-0.7,1.8,2470.523,13.28,0.054,291.4
2021-12-22T03:13:03,42.805,6.029,-0.02,-0.003,-0.039,102.0,101.0,101.0,13.3,1505.2,325.0,-0.8,1.8,2470.537,13.29,0.02,261.5
2021-12-22T03:16:03,42.805,6.029,-0.04,0.005,-0.04,100.0,101.0,101.0,13.3,1505.2,328.2,-0.7,1.8,2470.513,13.29,0.04,277.1
2021-12-22T03:19:03,42.805,6.029,-0.008,0.02,0.011,102.0,102.0,99.0,13.4,1505.2,331.1,-0.7,1.8,2470.547,13.29,0.021,338.2
2021-12-22T03:22:03,42.805,6.029,-0.023,0.013,-0.022,100.0,102.0,101.0,13.4,1505.2,326.0,-0.7,1.8,2470.56,13.29,0.026,299.5
2021-12-22T03:25:03,42.805,6.029,0.007,-0.01,-0.01,101.0,101.0,100.0,13.4,1505.2,329.2,-0.8,1.8,2470.554,13.29,0.012,145.0
2021-12-22T03:28:03,42.805,6.029,-0.032,-0.01,-0.013,101.0,101.0,100.0,13.4,1505.2,328.7,-0.7,1.8,2470.515,13.29,0.033,252.6
2021-12-22T03:31:03,42.805,6.029,-0.027,0.011,-0.008,101.0,101.0,99.0,13.4,1505.2,329.8,-0.7,1.8,2470.545,13.29,0.029,292.2
2021-12-22T03:34:03,42.805,6.029,-0.036,-0.008,-0.008,102.0,102.0,101.0,13.4,1505.2,330.3,-0.8,1.8,2470.572,13.29,0.036,257.5
2021-12-22T03:37:03,42.805,6.029,-0.032,0.028,-0.015,100.0,100.0,101.0,13.4,1505.2,331.5,-0.7,1.8,2470.54,13.29,0.042,311.2
2021-12-22T03:40:03,42.805,6.029,-0.037,0.021,-0.036,101.0,101.0,100.0,13.4,1505.2,330.6,-0.8,1.8,2470.562,13.29,0.042,299.6
2021-12-22T03:43:03,42.805,6.029,-0.038,0.023,-0.001,102.0,101.0,99.0,13.3,1505.2,327.4,-0.7,1.8,2470.54,13.29,0.044,301.2
2021-12-22T03:46:03,42.805,6.029,-0.046,0.016,-0.019,101.0,101.0,100.0,13.4,1505.2,329.4,-0.7,1.8,2470.556,13.29,0.048,289.2
2021-12-22T03:49:03,42.805,6.029,-0.041,0.027,-0.029,101.0,101.0,100.0,13.4,1505.2,326.2,-0.7,1.9,2470.578,13.29,0.049,303.4
2021-12-22T03:52:03,42.805,6.029,-0.034,0.04,-0.015,100.0,101.0,100.0,13.4,1505.2,327.3,-0.8,1.8,2470.56,13.29,0.052,319.6
2021-12-22T03:55:03,42.805,6.029,-0.031,0.01,-0.045,101.0,102.0,98.0,13.4,1505.2,329.3,-0.8,1.8,2470.504,13.29,0.032,287.9
2021-12-22T03:58:03,42.805,6.029,-0.027,0.021,-0.007,101.0,102.0,99.0,13.4,1505.2,327.0,-0.7,1.8,2470.571,13.29,0.034,307.9
2021-12-22T04:04:03,42.805,6.029,-0.038,0.02,-0.011,101.0,101.0,100.0,13.4,1505.2,328.0,-0.8,1.8,2470.566,13.28,0.042,297.8
2021-12-22T04:07:03,42.805,6.029,-0.068,0.015,-0.013,101.0,102.0,100.0,13.4,1505.2,326.8,-0.7,1.8,2470.488,13.28,0.069,282.4
2021-12-22T04:10:03,42.805,6.029,-0.024,0.01,-0.006,102.0,103.0,100.0,13.3,1505.2,328.8,-0.8,1.8,2470.544,13.28,0.026,292.6
2021-12-22T04:13:03,42.805,6.029,-0.008,0.01,0.004,101.0,102.0,99.0,13.4,1505.2,327.0,-0.8,1.9,2470.541,13.29,0.012,321.3
2021-12-22T04:16:03,42.805,6.029,-0.016,0.02,-0.015,102.0,104.0,99.0,13.4,1505.2,329.6,-0.7,1.8,2470.505,13.29,0.025,321.3
2021-12-22T04:19:03,42.805,6.029,-0.034,0.0,-0.024,101.0,102.0,100.0,13.4,1505.2,325.1,-0.8,1.8,2470.507,13.29,0.034,270.0
2021-12-22T04:22:03,42.805,6.029,-0.032,0.017,-0.036,102.0,99.0,99.0,13.4,1505.2,329.4,-0.7,1.8,2470.532,13.29,0.036,298.0
2021-12-22T04:25:03,42.805,6.029,-0.032,0.011,-0.008,102.0,102.0,100.0,13.4,1505.2,330.4,-0.8,1.9,2470.527,13.29,0.033,289.0
2021-12-22T04:28:03,42.805,6.029,-0.016,0.009,0.007,101.0,100.0,102.0,13.4,1505.2,327.8,-0.8,1.8,2470.507,13.29,0.018,299.4
2021-12-22T04:31:03,42.805,6.029,-0.034,0.004,-0.017,100.0,103.0,100.0,13.4,1505.2,328.0,-0.8,1.8,2470.544,13.29,0.034,276.7
2021-12-22T04:34:03,42.805,6.029,-0.006,0.01,-0.01,99.0,101.0,101.0,13.4,1505.2,331.2,-0.7,1.8,2470.565,13.29,0.011,329.0
2021-12-22T04:37:03,42.805,6.029,-0.037,0.005,-0.023,101.0,101.0,100.0,13.4,1505.2,331.2,-0.8,1.8,2470.542,13.29,0.037,277.7
2021-12-22T04:40:03,42.805,6.029,-0.039,0.011,-0.023,102.0,101.0,100.0,13.4,1505.2,326.9,-0.8,1.8,2470.591,13.29,0.04,285.7
2021-12-22T04:43:03,42.805,6.029,-0.003,0.01,-0.034,101.0,102.0,99.0,13.3,1505.2,325.7,-0.8,1.8,2470.555,13.29,0.01,343.3
2021-12-22T04:46:03,42.805,6.029,-0.029,0.015,-0.02,102.0,102.0,100.0,13.4,1505.2,332.0,-0.7,1.8,2470.553,13.29,0.032,297.4
2021-12-22T04:49:03,42.805,6.029,-0.031,0.031,0.0,101.0,101.0,101.0,13.3,1505.2,326.5,-0.7,1.8,2470.592,13.29,0.043,315.0
2021-12-22T04:52:03,42.805,6.029,-0.023,0.016,-0.026,101.0,101.0,100.0,13.3,1505.2,326.2,-0.8,1.8,2470.581,13.29,0.028,304.8
2021-12-22T04:55:03,42.805,6.029,-0.033,0.021,-0.025,101.0,101.0,100.0,13.4,1505.2,328.6,-0.8,1.8,2470.577,13.29,0.039,302.5
2021-12-22T04:58:03,42.805,6.029,-0.034,0.03,-0.017,101.0,101.0,101.0,13.4,1505.2,328.3,-0.8,1.8,2470.594,13.29,0.045,311.4
2021-12-22T05:04:03,42.805,6.029,-0.023,0.008,-0.023,101.0,101.0,100.0,13.4,1505.2,327.7,-0.7,1.8,2470.627,13.28,0.024,289.2
2021-12-22T05:07:03,42.805,6.029,0.007,0.0,0.0,102.0,101.0,100.0,13.3,1505.2,324.6,-0.7,1.8,2470.587,13.28,0.007,90.0
2021-12-22T05:10:03,42.805,6.029,-0.016,0.016,0.0,102.0,102.0,101.0,13.4,1505.2,330.1,-0.8,1.8,2470.62,13.28,0.022,315.0
2021-12-22T05:13:03,42.805,6.029,-0.025,0.013,0.0,102.0,102.0,101.0,13.3,1505.2,325.9,-0.8,1.8,2470.614,13.28,0.028,297.5
2021-12-22T05:16:03,42.805,6.029,-0.031,0.018,-0.024,102.0,100.0,101.0,13.3,1505.2,326.4,-0.8,1.8,2470.61,13.29,0.035,300.1
2021-12-22T05:19:03,42.805,6.029,-0.006,0.0,-0.01,102.0,101.0,100.0,13.4,1505.2,326.6,-0.7,1.8,2470.617,13.29,0.006,270.0
2021-12-22T05:22:03,42.805,6.029,-0.038,0.02,-0.019,99.0,100.0,101.0,13.3,1505.2,326.8,-0.8,1.8,2470.637,13.29,0.042,297.8
2021-12-22T05:25:03,42.805,6.029,-0.017,0.01,-0.012,103.0,101.0,100.0,13.3,1505.2,324.6,-0.8,1.8,2470.626,13.29,0.019,300.5
2021-12-22T05:28:03,42.805,6.029,-0.042,0.007,-0.01,102.0,102.0,100.0,13.3,1505.2,327.3,-0.7,1.8,2470.591,13.29,0.042,279.5
2021-12-22T05:31:03,42.805,6.029,-0.043,0.016,-0.01,101.0,102.0,100.0,13.4,1505.2,324.3,-0.7,1.8,2470.666,13.29,0.045,290.4
2021-12-22T05:34:03,42.805,6.029,-0.032,0.035,0.011,101.0,101.0,100.0,13.3,1505.2,325.7,-0.8,1.8,2470.633,13.29,0.047,317.6
2021-12-22T05:37:03,42.805,6.029,-0.031,0.002,-0.017,102.0,101.0,100.0,13.4,1505.2,330.7,-0.8,1.8,2470.649,13.29,0.031,273.7
2021-12-22T05:40:03,42.805,6.029,-0.038,0.005,-0.007,101.0,101.0,100.0,13.4,1505.2,326.0,-0.7,1.9,2470.643,13.29,0.038,277.5
2021-12-22T05:43:03,42.805,6.029,-0.032,0.004,-0.017,101.0,101.0,101.0,13.4,1505.2,325.7,-0.8,1.8,2470.671,13.29,0.032,277.1
2021-12-22T05:46:03,42.805,6.029,-0.021,0.01,-0.028,101.0,100.0,101.0,13.3,1505.2,328.2,-0.7,1.8,2470.685,13.29,0.023,295.5
2021-12-22T05:49:03,42.805,6.029,-0.015,-0.014,-0.017,100.0,101.0,100.0,13.4,1505.2,328.7,-0.7,1.8,2470.731,13.29,0.02,227.0
2021-12-22T05:52:03,42.805,6.029,-0.036,0.029,-0.014,100.0,101.0,100.0,13.3,1505.2,331.7,-0.7,1.8,2470.719,13.29,0.046,308.9
2021-12-22T05:55:03,42.805,6.029,-0.035,0.011,-0.027,101.0,101.0,100.0,13.3,1505.2,330.4,-0.8,1.8,2470.702,13.29,0.036,287.4
2021-12-22T05:58:03,42.805,6.029,-0.034,-0.003,-0.019,101.0,101.0,101.0,13.4,1505.2,328.4,-0.7,1.8,2470.745,13.29,0.034,265.0
2021-12-22T06:04:03,42.805,6.029,-0.029,-0.001,0.0,102.0,102.0,100.0,13.3,1505.2,324.9,-0.7,1.8,2470.722,13.28,0.029,268.0
2021-12-22T06:07:03,42.805,6.029,-0.028,0.029,-0.002,101.0,102.0,100.0,13.4,1505.2,329.0,-0.8,1.8,2470.746,13.28,0.04,316.0
2021-12-22T06:10:03,42.805,6.029,-0.031,0.012,-0.002,102.0,101.0,100.0,13.4,1505.2,324.7,-0.7,1.8,2470.721,13.28,0.033,291.2
2021-12-22T06:13:03,42.805,6.029,-0.032,0.043,0.023,102.0,101.0,100.0,13.4,1505.2,327.6,-0.7,1.8,2470.728,13.28,0.053,323.3
2021-12-22T06:16:03,42.805,6.029,-0.036,0.009,-0.017,101.0,102.0,100.0,13.3,1505.2,331.3,-0.7,1.8,2470.707,13.28,0.037,284.0
2021-12-22T06:19:03,42.805,6.029,-0.03,0.019,-0.014,101.0,103.0,99.0,13.4,1505.2,329.6,-0.8,1.8,2470.718,13.28,0.035,302.3
2021-12-22T06:22:03,42.805,6.029,-0.032,0.01,-0.007,101.0,102.0,100.0,13.4,1505.2,325.5,-0.7,1.8,2470.751,13.28,0.033,287.4
2021-12-22T06:25:03,42.805,6.029,-0.035,0.002,-0.036,101.0,103.0,101.0,13.4,1505.2,327.9,-0.7,1.8,2470.755,13.29,0.035,273.3
2021-12-22T06:28:03,42.805,6.029,-0.032,0.047,0.003,102.0,101.0,100.0,13.4,1505.2,328.6,-0.7,1.8,2470.765,13.29,0.056,325.8
2021-12-22T06:31:03,42.805,6.029,-0.04,0.011,-0.011,101.0,101.0,100.0,13.4,1505.2,327.1,-0.8,1.8,2470.778,13.29,0.041,285.4
2021-12-22T06:34:03,42.805,6.029,-0.022,0.01,-0.007,102.0,101.0,101.0,13.4,1505.2,329.5,-0.8,1.8,2470.751,13.29,0.024,294.4
2021-12-22T06:37:03,42.805,6.029,-0.032,0.022,0.0,101.0,102.0,100.0,13.4,1505.2,326.6,-0.8,1.8,2470.771,13.29,0.038,304.5
2021-12-22T06:40:03,42.805,6.029,-0.026,0.032,-0.015,102.0,102.0,100.0,13.3,1505.2,332.5,-0.7,1.9,2470.747,13.29,0.041,320.9
2021-12-22T06:43:03,42.805,6.029,-0.042,0.012,-0.019,101.0,102.0,100.0,13.4,1505.2,326.1,-0.8,1.8,2470.771,13.29,0.043,285.9
2021-12-22T06:46:03,42.805,6.029,-0.037,0.022,0.017,101.0,101.0,100.0,13.4,1505.2,326.3,-0.8,1.8,2470.766,13.29,0.043,300.7
2021-12-22T06:49:03,42.805,6.029,-0.054,0.008,-0.022,101.0,101.0,100.0,13.4,1505.2,324.4,-0.8,1.8,2470.769,13.29,0.054,278.4
2021-12-22T06:52:03,42.805,6.029,-0.037,0.024,-0.024,103.0,102.0,100.0,13.4,1505.2,328.5,-0.7,1.8,2470.763,13.29,0.044,303.0
2021-12-22T06:55:03,42.805,6.029,-0.048,0.029,-0.021,101.0,101.0,100.0,13.4,1505.2,328.3,-0.7,1.8,2470.753,13.29,0.056,301.1
2021-12-22T06:58:03,42.805,6.029,-0.045,0.02,-0.008,101.0,101.0,101.0,13.3,1505.2,331.0,-0.7,1.9,2470.751,13.29,0.049,294.0
2021-12-22T07:04:03,42.805,6.029,-0.018,0.01,-0.01,102.0,101.0,101.0,13.3,1505.2,329.1,-0.7,1.8,2470.777,13.28,0.02,299.1
2021-12-22T07:07:03,42.805,6.029,-0.018,0.0,-0.004,100.0,102.0,102.0,13.4,1505.2,324.3,-0.8,1.8,2470.734,13.28,0.018,270.0
2021-12-22T07:10:03,42.805,6.029,-0.031,0.039,0.011,101.0,102.0,101.0,13.4,1505.2,328.0,-0.8,1.8,2470.768,13.28,0.049,321.5
2021-12-22T07:13:03,42.805,6.029,-0.037,0.039,-0.007,101.0,103.0,100.0,13.4,1505.2,331.6,-0.8,1.8,2470.753,13.28,0.053,316.5
2021-12-22T07:16:03,42.805,6.029,-0.038,0.018,-0.021,102.0,102.0,101.0,13.3,1505.2,324.7,-0.7,1.8,2470.747,13.29,0.042,295.3
2021-12-22T07:19:03,42.805,6.029,-0.02,-0.004,-0.02,101.0,101.0,101.0,13.4,1505.2,325.3,-0.8,1.8,2470.717,13.29,0.02,258.7
2021-12-22T07:22:03,42.805,6.029,-0.037,0.019,-0.008,102.0,102.0,100.0,13.4,1505.2,328.2,-0.8,1.8,2470.739,13.29,0.041,297.2
2021-12-22T07:25:03,42.805,6.029,-0.035,0.02,-0.042,102.0,102.0,100.0,13.3,1505.2,328.2,-0.8,1.8,2470.762,13.29,0.04,299.7
2021-12-22T07:28:03,42.805,6.029,-0.042,0.018,-0.013,101.0,101.0,100.0,13.3,1505.2,330.4,-0.8,1.8,2470.745,13.29,0.045,293.2
2021-12-22T07:31:03,42.805,6.029,-0.034,0.024,-0.018,102.0,101.0,101.0,13.4,1505.2,326.1,-0.7,1.8,2470.765,13.29,0.041,305.2
2021-12-22T07:34:03,42.805,6.029,-0.037,0.003,-0.032,102.0,102.0,100.0,13.4,1505.2,324.8,-0.7,1.8,2470.729,13.29,0.037,274.6
2021-12-22T07:37:03,42.805,6.029,-0.025,0.018,-0.006,102.0,102.0,100.0,13.4,1505.2,325.9,-0.7,1.8,2470.763,13.29,0.03,305.8
2021-12-22T07:40:03,42.805,6.029,0.0,0.014,-0.04,101.0,101.0,100.0,13.4,1505.2,325.6,-0.7,1.8,2470.745,13.29,0.014,0.0
2021-12-22T07:43:03,42.805,6.029,-0.034,0.029,0.0,101.0,102.0,101.0,13.4,1505.2,326.5,-0.8,1.8,2470.756,13.29,0.044,310.5
2021-12-22T07:46:03,42.805,6.029,-0.025,0.04,0.007,102.0,102.0,101.0,13.4,1505.2,331.2,-0.7,1.8,2470.742,13.29,0.047,328.0
2021-12-22T07:49:03,42.805,6.029,-0.024,0.029,-0.027,101.0,101.0,100.0,13.4,1505.2,328.4,-0.8,1.8,2470.753,13.29,0.037,320.4
2021-12-22T07:52:03,42.805,6.029,-0.037,0.02,-0.004,102.0,102.0,100.0,13.3,1505.2,326.8,-0.7,1.8,2470.792,13.29,0.042,298.4
2021-12-22T07:55:03,42.805,6.029,-0.009,0.031,-0.016,102.0,102.0,100.0,13.4,1505.2,328.4,-0.7,1.8,2470.777,13.29,0.032,343.8
2021-12-22T07:58:03,42.805,6.029,-0.024,0.027,-0.004,101.0,102.0,101.0,13.3,1505.2,330.8,-0.7,1.8,2470.758,13.29,0.036,318.4
2021-12-22T08:04:03,42.805,6.029,-0.014,0.03,0.013,101.0,102.0,100.0,13.4,1505.2,328.6,-0.7,1.8,2470.779,13.28,0.033,335.0
2021-12-22T08:07:03,42.805,6.029,-0.019,0.025,-0.006,102.0,102.0,101.0,13.3,1505.2,328.2,-0.8,1.8,2470.735,13.28,0.031,322.8
2021-12-22T08:10:03,42.805,6.029,-0.044,0.027,-0.006,102.0,102.0,100.0,13.4,1505.2,330.7,-0.7,1.8,2470.768,13.28,0.051,301.5
2021-12-22T08:13:03,42.805,6.029,-0.041,0.02,-0.015,101.0,101.0,100.0,13.3,1505.2,329.3,-0.7,1.8,2470.778,13.29,0.045,296.0
2021-12-22T08:16:03,42.805,6.029,-0.028,0.028,-0.006,101.0,102.0,100.0,13.4,1505.2,329.4,-0.8,1.8,2470.807,13.29,0.039,315.0
2021-12-22T08:19:03,42.805,6.029,-0.034,0.033,-0.016,103.0,102.0,100.0,13.4,1505.2,330.3,-0.8,1.8,2470.742,13.29,0.047,314.1
2021-12-22T08:22:03,42.805,6.029,-0.029,0.046,0.01,101.0,102.0,100.0,13.4,1505.2,328.8,-0.8,1.8,2470.755,13.29,0.054,327.8
2021-12-22T08:25:03,42.805,6.029,-0.046,0.024,0.004,101.0,101.0,101.0,13.4,1505.2,326.0,-0.7,1.8,2470.799,13.29,0.051,297.6
2021-12-22T08:28:03,42.805,6.029,-0.037,0.021,0.022,101.0,102.0,100.0,13.4,1505.2,329.4,-0.8,1.8,2470.767,13.29,0.042,299.6
2021-12-22T08:31:04,42.805,6.029,-0.03,0.02,0.009,101.0,101.0,100.0,13.4,1505.2,326.0,-0.8,1.8,2470.777,13.29,0.036,303.7
2021-12-22T08:34:03,42.805,6.029,-0.033,0.031,-0.005,102.0,102.0,100.0,13.4,1505.2,327.1,-0.8,1.8,2470.734,13.29,0.045,313.2
2021-12-22T08:37:03,42.805,6.029,-0.022,-0.006,-0.009,106.0,102.0,100.0,13.3,1505.2,327.3,-0.7,1.8,2470.799,13.29,0.022,254.7
2021-12-22T08:40:03,42.805,6.029,-0.041,0.03,-0.016,100.0,100.0,101.0,13.3,1505.2,329.4,-0.8,1.8,2470.78,13.29,0.05,306.2
2021-12-22T08:43:03,42.805,6.029,-0.046,0.033,-0.039,101.0,103.0,100.0,13.4,1505.2,331.5,-0.8,1.8,2470.764,13.29,0.056,305.7
2021-12-22T08:46:03,42.805,6.029,-0.037,0.02,0.016,103.0,102.0,100.0,13.4,1505.2,326.3,-0.8,1.8,2470.739,13.29,0.042,298.4
2021-12-22T08:49:03,42.805,6.029,-0.04,0.02,-0.021,103.0,101.0,100.0,13.4,1505.2,331.7,-0.8,1.8,2470.763,13.29,0.044,296.6
2021-12-22T08:52:03,42.805,6.029,-0.04,0.015,0.005,103.0,102.0,100.0,13.4,1505.2,324.8,-0.8,1.8,2470.769,13.29,0.042,290.6
2021-12-22T08:55:03,42.805,6.029,-0.037,0.021,-0.018,102.0,102.0,100.0,13.3,1505.2,323.9,-0.8,1.8,2470.737,13.29,0.042,299.6
2021-12-22T08:58:03,42.805,6.029,-0.053,0.037,-0.028,102.0,102.0,99.0,13.4,1505.2,325.1,-0.8,1.8,2470.731,13.29,0.064,304.9
2021-12-22T09:04:03,42.805,6.029,-0.017,0.029,-0.04,101.0,103.0,100.0,13.4,1505.2,330.3,-0.8,1.8,2470.753,13.28,0.033,329.6
2021-12-22T09:07:03,42.805,6.029,-0.029,0.014,-0.027,102.0,101.0,101.0,13.4,1505.2,331.3,-0.7,1.8,2470.791,13.28,0.032,295.8
2021-12-22T09:10:03,42.805,6.029,-0.022,0.017,0.011,101.0,102.0,101.0,13.4,1505.2,331.2,-0.8,1.8,2470.74,13.28,0.027,307.7
2021-12-22T09:13:03,42.805,6.029,-0.026,0.026,-0.013,101.0,101.0,100.0,13.4,1505.2,327.5,-0.8,1.8,2470.794,13.29,0.036,315.0
2021-12-22T09:16:03,42.805,6.029,-0.054,0.021,-0.04,102.0,101.0,100.0,13.4,1505.2,324.2,-0.7,1.9,2470.84,13.29,0.057,291.2
2021-12-22T09:19:03,42.805,6.029,-0.025,0.02,-0.007,101.0,102.0,101.0,13.4,1505.2,327.0,-0.8,1.8,2470.777,13.29,0.032,308.7
2021-12-22T09:22:03,42.805,6.029,-0.033,0.04,0.017,101.0,102.0,100.0,13.4,1505.2,327.0,-0.8,1.8,2470.778,13.29,0.051,320.5
2021-12-22T09:25:03,42.805,6.029,-0.045,0.023,-0.013,102.0,102.0,100.0,13.4,1505.2,330.0,-0.8,1.8,2470.776,13.29,0.05,297.1
2021-12-22T09:28:03,42.805,6.029,-0.044,0.021,-0.03,101.0,101.0,100.0,13.4,1505.2,325.9,-0.7,1.8,2470.775,13.29,0.048,295.5
2021-12-22T09:31:03,42.805,6.029,-0.014,0.001,-0.039,101.0,101.0,100.0,13.4,1505.2,327.8,-0.8,1.8,2470.751,13.29,0.014,274.1
2021-12-22T09:34:03,42.805,6.029,-0.022,0.014,-0.005,103.0,101.0,100.0,13.4,1505.2,329.5,-0.7,1.8,2470.733,13.29,0.026,302.5
2021-12-22T09:37:03,42.805,6.029,-0.029,0.022,0.0,101.0,102.0,102.0,13.3,1505.2,330.4,-0.7,1.9,2470.776,13.29,0.036,307.2
2021-12-22T09:40:03,42.805,6.029,-0.036,0.026,-0.025,102.0,102.0,99.0,13.4,1505.2,331.1,-0.7,1.8,2470.759,13.29,0.044,305.8
2021-12-22T09:43:03,42.805,6.029,-0.056,0.024,-0.027,101.0,101.0,100.0,13.3,1505.2,329.1,-0.7,1.8,2470.744,13.29,0.06,293.2
2021-12-22T09:46:03,42.805,6.029,-0.061,0.023,-0.02,102.0,105.0,100.0,13.3,1505.2,329.0,-0.8,1.8,2470.821,13.29,0.065,290.7
2021-12-22T09:49:03,42.805,6.029,-0.033,0.051,0.005,101.0,102.0,101.0,13.4,1505.2,325.2,-0.8,1.8,2470.746,13.29,0.06,327.1
2021-12-22T09:52:03,42.805,6.029,-0.039,0.024,-0.006,101.0,102.0,101.0,13.4,1505.2,329.9,-0.8,1.9,2470.743,13.29,0.045,301.6
2021-12-22T09:55:03,42.805,6.029,-0.028,0.012,-0.008,100.0,101.0,101.0,13.4,1505.2,326.2,-0.7,1.8,2470.729,13.29,0.03,293.2